ランキン彗星

P/2020 V4 ( Rankin )

English version
Home page
Updated on May 29, 2022

---------------------------------------------------------------------

・ プロフィール

発見日 2020年11月15日
発見光度 19.2等
発見者 David Rankin (Mount Lemmon Survey)

・ 写真集

・ 軌道要素

Epoch 2022 Jan. 21.0 TT = JDT 2459600.5
T 2021 July 17.79115 TT                                 Rudenko
q   5.1485418            (2000.0)            P               Q
n   0.03446993     Peri.  256.99198     -0.17010295     -0.98053188
a   9.3506640      Node   203.49685     +0.97230627     -0.15081507
e   0.4493929      Incl.   14.24287     +0.16026701     -0.12574593
P  28.6
From 524 observations 2019 Sept. 22-2022 Feb. 2, mean residual 0".5.

・ 光度変化

        m1 = -16.0 + 5 logΔ + 42.5 log r(t - 80)

---------------------------------------------------------------------

軌道要素はM.P.E.C. 2022-C56に掲載されたものです。
光度グラフはComet for Windowsで作成したものです。

---------------------------------------------------------------------

Copyright(C) Seiichi Yoshida (comet@aerith.net). All rights reserved.